Regional Weather Roundup
Issued by NWS

Home | Current Version | Previous Version | Graphics & Text | Print | Product List | Glossary On
Versions: 1 2 3 4 5 6 7 8 9 10 11 12 13 14 15 16 17 18 19 20 21 22 23 24 25 26 27 28 29 30 31 32 33 34 35 36 37 38 39 40 41 42 43 44 45 46 47 48 49 50
000
ASUS45 KBOU 021007
RWRCO

WEATHER ROUNDUP FOR COLORADO
NATIONAL WEATHER SERVICE DENVER/BOULDER CO
400 AM MDT TUE JUN 02 2015

NOTE: "FAIR" INDICATES FEW OR NO CLOUDS BELOW 12000 FEET WITH NO
SIGNIFICANT WEATHER AND/OR OBSTRUCTIONS TO VISIBILITY.

COZ001>005-013-030-031-021100-
...NORTHWEST COLORADO...

CITY           SKY/WX    TMP DP  RH WIND       PRES   REMARKS
CRAIG          CLEAR     41  39  93 CALM      30.04S
HAYDEN         CLEAR     48  39  71 E8        30.05R
MEEKER         CLEAR     44  39  82 NE7       30.06R
MOUNT WERNER   NOT AVBL
STEAMBOAT SPGS CLEAR     46  39  77 CALM      30.07S
WALDEN         CLEAR     37  34  87 NE3       30.14S
$$

COZ006>008-011-021100-
...WEST CENTRAL VALLEYS...

CITY           SKY/WX    TMP DP  RH WIND       PRES   REMARKS
GRAND JUNCTION PTCLDY    62  31  31 SE9       29.95R
MONTROSE       PTCLDY    57  28  33 E8        30.06R
EAGLE          PTCLDY    57  52  82 SE3       30.11S
RIFLE          CLEAR     50  40  68 CALM      30.00S
DELTA          PTCLDY    58  33  38 E7        30.02R
NUCLA          PTCLDY    63  19  19 MISG      30.10S
$$

COZ017>023-064>068-021100-
...SOUTHWEST COLORADO...

CITY           SKY/WX    TMP DP  RH WIND       PRES   REMARKS
DURANGO        PTCLDY    48  38  68 N6        30.18R
CORTEZ         CLEAR     62  24  23 S13       30.11S
PAGOSA SPRINGS PTCLDY    47  37  68 CALM      30.24F
TELLURIDE      PTCLDY    51  21  31 S6        30.32S
WOLF CREEK PAS NOT AVBL
$$

COZ009-010-012-014-032>034-037-058>063-021100-
...CENTRAL COLORADO...

CITY           SKY/WX    TMP DP  RH WIND       PRES   REMARKS
ASPEN          PTCLDY    51  34  52 S10       30.15S
BUENA VISTA    PTCLDY    40  35  83 W5        30.22S
COPPER MTN     CLEAR     46  19  34 SW12G20   30.43F
BERTHOUD PASS  FAIR      39  32  75 W18G30    30.45S
COTTONWOOD PAS NOT AVBL
GUNNISON       CLEAR     43  34  70 CALM      30.25F
KREMMLING      CLEAR     41  36  81 CALM      30.14S
LEADVILLE      PTCLDY    33  29  85 CALM      30.29F
MONARCH PASS   CLEAR     39  32  75 SW21      30.54F
SALIDA         PTCLDY    51  38  61 W5        30.27S
SUNLIGHT       PTCLDY    46  23  39 CALM      30.35F
WILKERSON PASS PTCLDY    43  32  65 SW9G21    30.40S
$$

COZ069>075-021100-
...SAN LUIS VALLEY/SANGRE DE CRISTO MOUNTAINS...

CITY           SKY/WX    TMP DP  RH WIND       PRES   REMARKS
ALAMOSA        PTCLDY    53  40  61 S13       30.21F
LA VETA PASS   CLEAR    N/A N/A N/A MISG      30.35S
SAGUACHE       PTCLDY    45  37  76 NW12      30.25S
$$

COZ035-036-038>040-021100-
...NORTHERN COLORADO FRONT RANGE...

CITY           SKY/WX    TMP DP  RH WIND       PRES   REMARKS
DENVER INTL AP PTCLDY    62  45  53 SW14      29.97R
DMNS CITY PARK NOT AVBL
AURORA         PTCLDY    60  44  54 S15       29.98F
FRONT RANGE AP CLEAR     63  46  55 MISG      29.98S
ERIE MUNI ARPT CLEAR     54  50  88 CALM      29.97R
BOULDER MUN AP CLEAR     55  48  76 SW3       29.98S
CENTENNIAL     PTCLDY    55  45  68 SE8       30.00F
BROOMFIELD     CLEAR     55  50  82 N9        30.00R
FORT COLLINS   CLEAR     55  50  82 N6        29.98F
LONGMONT       CLEAR     58  51  77 NW5       29.98F
$$

COZ041-046-047-076>085-087-088-021100-
...PIKES PEAK/PALMER DIVIDE AND SOUTHERN FOOTHILLS...

CITY           SKY/WX    TMP DP  RH WIND       PRES   REMARKS
COLO. SPRINGS  PTCLDY    53  45  74 N8        30.06F
A. F. ACADEMY  PTCLDY    47  43  86 N9        30.08F
ELLICOTT       CLEAR    N/A N/A N/A CALM      30.04F
FALCON         CLEAR     52  44  73 N5        30.10F
FORT CARSON    NOT AVBL
LIMON          PTCLDY    57  47  69 SE9       30.01F
MONUMENT HILL  CLEAR     54  41  62 MISG      30.09F
TRINIDAD       PTCLDY    59  44  57 W12       30.04F
$$

COZ042>045-048>051-090-091-021100-
...NORTHEAST COLORADO...

CITY           SKY/WX    TMP DP  RH WIND       PRES   REMARKS
GREELEY ARPT   CLEAR     54  52  94 N9        29.95F
AKRON          PTCLDY    57  56  96 SE25G31   29.98F THUNDER
BURLINGTON     PTCLDY    62  58  86 E7G31     30.00F
WRAY           CLOUDY    58  56  92 SE7       30.00S
STERLING       MOCLDY    59  57  94 S9        29.93S
HOLYOKE        NOT AVBL
FORT MORGAN    PTCLDY    58   3  11 E10       29.96S
$$

COZ086-089-092>099-021100-
...SOUTHEAST COLORADO...

CITY           SKY/WX    TMP DP  RH WIND       PRES   REMARKS
PUEBLO         CLEAR     52  50  93 NW6       29.98F
LA JUNTA       CLEAR     58  53  84 MISG      29.95F
LAMAR          MOCLDY    60  54  80 N3        29.92S
SPRINGFIELD      N/A     55  50  83 SW13      29.96F
$$


USA.gov is the U.S. government's official web portal to all federal, state and local government web resources and services.